(209610) = 2005 AL2 = 2006 MY6

Discovered at Catalina on 2005-01-06 by CSS.

Orbit

Orbit type: Main Belt

Note: WebGL enabled browser required.

epoch2024-03-31.0
epoch JD2460400.5
perihelion date2022-11-08.34943
perihelion JD2459891.84943
argument of perihelion (°)40.62265
ascending node (°)95.11853
inclination (°)15.49504
eccentricity0.0948533
perihelion distance (AU)2.4381790
Tisserand w.r.t. Jupiter3.3
ΔV w.r.t. Earth (km/sec)10.9
semimajor axis (AU)2.6936837
mean anomaly (°)113.39750
mean daily motion (°/day)0.22293790
aphelion distance (AU)2.949
period (years)4.42
P-vector [x]-0.69262472
P-vector [y]0.57305993
P-vector [z]0.43803347
Q-vector [x]-0.67042326
Q-vector [y]-0.73549649
Q-vector [z]-0.09786503
absolute magnitude15.76
phase slope0.15
uncertainty0
referenceMPEC 2024-D06
observations used476
oppositions14
arc length (days)8627
first opposition used1999
last opposition used2023
residual rms (arc-secs)0.77
perturbers coarse indicatorM-v
perturbers precise indicator003Ek
first observation date used1999-11-17.0
last observation date used2023-07-01.0
computer nameMPCLINUX
JD of orbit computation2456877.924186
perihelion JD uncertainty (days)2.6324E-04
argument of perihelion uncertainty (°)7.3292E-05
ascending node uncertainty (°)3.4834E-05
inclination uncertainty (°)7.8241E-06
eccentricity uncertainty 7.4436E-08
perihelion distance uncertainty (AU)2.0489E-07
Minimum Orbit Intersection Distances (in AU)
for orbit epoch: 2460400.5, reference: E2024-D06
Mercury2.09343
Venus1.72654
Earth1.47254
Mars0.82679
Jupiter2.20281
Saturn6.508
Uranus16.0524
Neptune27.1133

Observations

471 total observations over interval: 1999 11 17.30965 – 2023 07 01.170272
These data are available for download (format description).

Date (UT) J2000 RA J2000 Dec Magn Location Ref
1999 11 17.30965 03 54 05.63 +04 09 12.6 19.7 R 703 – Catalina Sky Survey MPS 174718
1999 11 17.32432 03 54 04.73 +04 09 14.6 19.5 R 703 – Catalina Sky Survey MPS 174718
1999 11 17.33949 03 54 03.76 +04 09 14.8 19.5 R 703 – Catalina Sky Survey MPS 174718
1999 11 17.37043 03 54 01.89 +04 09 14.3 19.1 R 703 – Catalina Sky Survey MPS 174718
2005 01 06.38431 09 01 31.69 +28 11 28.4 18.6 R 703 – Catalina Sky Survey MPS 123606
2005 01 06.39184 09 01 31.33 +28 11 33.1 18.2 R 703 – Catalina Sky Survey MPS 123606
2005 01 06.39935 09 01 31.06 +28 11 38.7 18.7 R 703 – Catalina Sky Survey MPS 123606
2005 01 06.40685 09 01 30.77 +28 11 43.6 18.6 R 703 – Catalina Sky Survey MPS 123606
2005 01 07.40978 09 00 52.41 +28 23 04.3 19.1 R 703 – Catalina Sky Survey MPS 123606
2005 01 07.41745 09 00 52.13 +28 23 08.4 19.1 R 703 – Catalina Sky Survey MPS 123606
2005 01 07.42503 09 00 51.85 +28 23 13.9 18.9 R 703 – Catalina Sky Survey MPS 123606
2005 01 07.43263 09 00 51.47 +28 23 19.3 18.2 R 703 – Catalina Sky Survey MPS 123606
2005 01 31.31159 08 39 55.58 +32 35 17.2 19.3   704 – Lincoln Laboratory ETS, New Mexico MPS 138430
2005 01 31.32410 08 39 54.88 +32 35 23.4 19.2   704 – Lincoln Laboratory ETS, New Mexico MPS 138430
2005 01 31.33662 08 39 54.07 +32 35 29.3 19.4   704 – Lincoln Laboratory ETS, New Mexico MPS 138430
2005 02 28.25803 08 18 19.95 +35 02 51.4 19.0 R 703 – Catalina Sky Survey MPS 174718
2005 02 28.26798 08 18 19.73 +35 02 52.0 19.0 R 703 – Catalina Sky Survey MPS 174718
2005 02 28.27766 08 18 19.45 +35 02 53.1 19.2 R 703 – Catalina Sky Survey MPS 174718
2005 02 28.28741 08 18 19.26 +35 02 55.1 19.3 R 703 – Catalina Sky Survey MPS 174718
2006 05 25.38199 16 36 25.88 -10 14 12.3 19.1 V G96 – Mt. Lemmon Survey MPS 174718
2006 05 25.38722 16 36 25.59 -10 14 13.0 19.2 V G96 – Mt. Lemmon Survey MPS 174718
2006 05 25.39227 16 36 25.27 -10 14 13.7 19.3 V G96 – Mt. Lemmon Survey MPS 174718
2006 05 25.39741 16 36 25.02 -10 14 14.2 19.3 V G96 – Mt. Lemmon Survey MPS 174718
2006 06 17.35612 16 15 01.51 -11 29 07.0 19.9 V 691 – Steward Observatory, Kitt Peak-Spacewatch MPS 174028
2006 06 17.37687 16 15 00.46 -11 29 12.5 19.9 V 691 – Steward Observatory, Kitt Peak-Spacewatch MPS 174028
2006 06 17.39422 16 14 59.58 -11 29 16.6 20.5 V 691 – Steward Observatory, Kitt Peak-Spacewatch MPS 174028
2006 06 21.28346 16 11 57.06 -11 46 20.8 19.6 R 644 – Palomar Mountain/NEAT MPS 174028
2006 06 21.30603 16 11 56.01 -11 46 26.8 19.4 R 644 – Palomar Mountain/NEAT MPS 174028
2006 06 21.32550 16 11 55.13 -11 46 32.3 19.6 R 644 – Palomar Mountain/NEAT MPS 174028
2008 12 03.37244 04 57 07.81 +13 00 50.7 19.1 V G96 – Mt. Lemmon Survey MPS 267520
2008 12 03.38008 04 57 07.30 +13 00 52.5 18.9 V G96 – Mt. Lemmon Survey MPS 267520
2008 12 03.38782 04 57 06.80 +13 00 54.3 18.8 V G96 – Mt. Lemmon Survey MPS 267520
2008 12 21.27634 04 38 46.86 +14 24 46.8 19.1 V 703 – Catalina Sky Survey MPS 269259
2008 12 21.28449 04 38 46.32 +14 24 48.2 19.1 V 703 – Catalina Sky Survey MPS 269259
2008 12 21.29265 04 38 45.74 +14 24 49.4 19.0 V 703 – Catalina Sky Survey MPS 269260
2008 12 21.30083 04 38 45.31 +14 24 53.0 18.9 V 703 – Catalina Sky Survey MPS 269260
2008 12 28.20233 04 32 43.29 +15 03 32.7 19.1   704 – Lincoln Laboratory ETS, New Mexico MPS 270138
2008 12 28.21567 04 32 42.64 +15 03 37.8 19.9   704 – Lincoln Laboratory ETS, New Mexico MPS 270138
2008 12 28.22848 04 32 42.04 +15 03 40.8 19.3   704 – Lincoln Laboratory ETS, New Mexico MPS 270138
2008 12 28.25417 04 32 40.68 +15 03 50.8 19.8   704 – Lincoln Laboratory ETS, New Mexico MPS 270138
2008 12 30.22083 04 31 09.12 +15 15 22.7 19.3 V G96 – Mt. Lemmon Survey MPS 270138
2008 12 30.22983 04 31 08.72 +15 15 25.8 19.0 V G96 – Mt. Lemmon Survey MPS 270138
2008 12 30.24098 04 31 08.18 +15 15 29.9 18.8 V G96 – Mt. Lemmon Survey MPS 270138
2008 12 30.25403 04 31 07.57 +15 15 34.5 18.8 V G96 – Mt. Lemmon Survey MPS 270138
2009 02 21.10490 04 32 18.74 +21 06 32.1 20.4 V G96 – Mt. Lemmon Survey MPS 277580
2009 02 21.10895 04 32 18.81 +21 06 33.8 19.7 V G96 – Mt. Lemmon Survey MPS 277580
2009 02 21.11292 04 32 18.99 +21 06 35.2 19.7 V G96 – Mt. Lemmon Survey MPS 277580
2009 02 21.11704 04 32 19.17 +21 06 37.1 19.6 V G96 – Mt. Lemmon Survey MPS 277580
2009 03 26.18718 05 08 58.81 +24 28 13.3 20.2 V G96 – Mt. Lemmon Survey MPS 282439
2009 03 26.19527 05 08 59.56 +24 28 15.5 20.0 V G96 – Mt. Lemmon Survey MPS 282439
2009 03 26.20351 05 09 00.18 +24 28 17.9 20.1 V G96 – Mt. Lemmon Survey MPS 282439
2009 03 26.21175 05 09 00.90 +24 28 20.2 21.1 V G96 – Mt. Lemmon Survey MPS 282439
2010 01 16.150059 13 53 40.26 +06 34 35.7   C51 – WISE MPS 334633
2010 01 16.282491 13 53 48.775 +06 34 39.40   C51 – WISE MPS 926710
2010 01 16.613316 13 54 09.40 +06 34 48.5   C51 – WISE MPS 334633
2010 01 16.745620 13 54 17.63 +06 34 51.8   C51 – WISE MPS 334633
2010 01 16.811837 13 54 21.917 +06 34 55.60   C51 – WISE MPS 926710
2010 01 16.877926 13 54 25.730 +06 34 55.52   C51 – WISE MPS 926710
2010 01 17.01023 13 54 34.15 +06 35 01.8   C51 – WISE MPS 334633
2010 02 14.49527 14 16 07.96 +07 53 08.9 20.0 V 703 – Catalina Sky Survey MPS 316535
2010 02 14.50284 14 16 08.07 +07 53 11.1 19.9 V 703 – Catalina Sky Survey MPS 316535
2010 02 14.51040 14 16 08.18 +07 53 13.0 20.0 V 703 – Catalina Sky Survey MPS 316535
2010 02 14.51803 14 16 08.36 +07 53 15.6 20.1 V 703 – Catalina Sky Survey MPS 316535
2010 04 06.575312 14 03 17.980 +13 09 53.31 18.82 i F51 – Pan-STARRS 1, Haleakala MPS 338816
2010 04 06.584597 14 03 17.502 +13 09 55.97 18.91 i F51 – Pan-STARRS 1, Haleakala MPS 338816
2010 04 07.35972 14 02 38.58 +13 13 25.0 19.6 V 703 – Catalina Sky Survey MPS 322081
2010 04 07.36603 14 02 38.22 +13 13 26.9 19.6 V 703 – Catalina Sky Survey MPS 322081
2010 04 07.37234 14 02 37.86 +13 13 27.9 19.6 V 703 – Catalina Sky Survey MPS 322081
2010 04 07.37874 14 02 37.53 +13 13 30.5 19.3 V 703 – Catalina Sky Survey MPS 322081
2010 04 11.29082 13 59 14.68 +13 29 12.5 19.6   704 – Lincoln Laboratory ETS, New Mexico MPS 323344
2010 04 11.30045 13 59 14.13 +13 29 14.8 19.2   704 – Lincoln Laboratory ETS, New Mexico MPS 323344
2010 04 11.30233 13 59 14.05 +13 29 15.5 19.9   704 – Lincoln Laboratory ETS, New Mexico MPS 323344
2010 04 11.31204 13 59 13.49 +13 29 15.9 19.2   704 – Lincoln Laboratory ETS, New Mexico MPS 323344
2010 04 11.32363 13 59 12.82 +13 29 19.4 19.3   704 – Lincoln Laboratory ETS, New Mexico MPS 323344
2010 04 11.32552 13 59 12.76 +13 29 20.6 19.5   704 – Lincoln Laboratory ETS, New Mexico MPS 323344
2010 04 15.38726 13 55 34.42 +13 41 55.8 19.2 V 703 – Catalina Sky Survey MPS 323344
2010 04 15.39520 13 55 33.96 +13 41 56.3 19.0 V 703 – Catalina Sky Survey MPS 323344
2010 04 15.40311 13 55 33.56 +13 41 58.1 19.2 V 703 – Catalina Sky Survey MPS 323344
2010 04 15.41100 13 55 33.20 +13 41 59.8 19.1 V 703 – Catalina Sky Survey MPS 323344
2010 05 07.29883 13 36 58.35 +13 35 34.5 20.3 V 703 – Catalina Sky Survey MPS 326229
2010 05 07.30509 13 36 58.10 +13 35 32.0 19.8 V 703 – Catalina Sky Survey MPS 326229
2010 05 07.31145 13 36 57.81 +13 35 31.8 19.5 V 703 – Catalina Sky Survey MPS 326229
2010 05 07.31777 13 36 57.52 +13 35 31.2 19.8 V 703 – Catalina Sky Survey MPS 326229
2010 07 06.404635 13 34 08.635 +05 14 16.01   C51 – WISE MPS 903505
2010 07 07.066154 13 34 32.117 +05 06 53.24   C51 – WISE MPS 903505
2010 07 07.198458 13 34 36.938 +05 05 26.70   C51 – WISE MPS 903505
2010 07 07.661457 13 34 53.736 +05 00 18.07   C51 – WISE MPS 903505
2010 07 07.793760 13 34 58.735 +04 58 47.03   C51 – WISE MPS 903505
2012 10 14.434837 02 22 44.871 -09 27 40.38 20.2 g F51 – Pan-STARRS 1, Haleakala MPS 437484
2012 10 14.447685 02 22 44.204 -09 27 43.61 19.9 g F51 – Pan-STARRS 1, Haleakala MPS 437484
2012 10 15.31345 02 22 00.22 -09 31 19.9 19.8 V 703 – Catalina Sky Survey MPS 437484
2012 10 15.32198 02 21 59.76 -09 31 22.2 19.7 V 703 – Catalina Sky Survey MPS 437484
2012 10 15.33052 02 21 59.32 -09 31 24.0 19.6 V 703 – Catalina Sky Survey MPS 437484
2012 10 15.33900 02 21 58.89 -09 31 25.8 19.7 V 703 – Catalina Sky Survey MPS 437484
2012 10 21.22354 02 16 47.80 -09 52 23.8 19.4   704 – Lincoln Laboratory ETS, New Mexico MPS 439211
